Time,TemperatureF,DewpointF,PressureIn,WindDirection,WindDirectionDegrees,WindSpeedMPH,WindSpeedGustMPH,Humidity,HourlyPrecipIn,Conditions,Clouds,dailyrainin,SoftwareType,DateUTC
2013-08-09 00:01:00,70.8,70.8,30.07,WSW,245,0.0,0.0,100,0.00,,FEW050,0.27,VWS V14.01,2013-08-09 04:01:00,
2013-08-09 00:02:00,70.8,70.8,30.07,WSW,245,0.0,0.0,100,0.00,,FEW050,0.27,VWS V14.01,2013-08-09 04:02:00,
2013-08-09 00:08:00,70.7,70.7,30.06,WSW,245,0.0,0.0,100,0.00,,FEW050,0.00,VWS V14.01,2013-08-09 04:08:00,
2013-08-09 00:13:00,70.8,70.8,30.05,WSW,245,0.0,0.0,100,0.00,,FEW050,0.00,VWS V14.01,2013-08-09 04:13:00,
2013-08-09 00:18:00,70.8,70.8,30.06,WSW,245,0.0,0.0,100,0.00,,FEW050,0.00,VWS V14.01,2013-08-09 04:18:00,
2013-08-09 00:23:00,70.9,70.9,30.06,WSW,245,0.0,0.0,100,0.00,,FEW050,0.00,VWS V14.01,2013-08-09 04:23:00,
2013-08-09 00:28:00,70.9,70.9,30.06,WSW,245,0.0,0.0,100,0.00,,FEW050,0.00,VWS V14.01,2013-08-09 04:28:00,
2013-08-09 00:33:00,70.9,70.9,30.06,WSW,245,0.0,0.0,100,0.00,,FEW050,0.00,VWS V14.01,2013-08-09 04:33:00,
2013-08-09 00:38:00,70.9,70.9,30.06,WSW,245,0.0,0.0,100,0.00,,FEW050,0.00,VWS V14.01,2013-08-09 04:38:00,
2013-08-09 00:43:00,71.0,71.0,30.06,WSW,245,0.0,0.0,100,0.00,,FEW050,0.00,VWS V14.01,2013-08-09 04:43:00,
2013-08-09 00:49:00,71.1,71.1,30.06,WSW,245,0.0,0.0,100,0.00,,FEW050,0.00,VWS V14.01,2013-08-09 04:49:00,
2013-08-09 00:54:00,71.1,71.1,30.05,WSW,245,0.0,0.0,100,0.00,,FEW050,0.00,VWS V14.01,2013-08-09 04:54:00,
2013-08-09 00:59:00,71.1,71.1,30.05,WSW,245,0.0,0.0,100,0.00,,FEW050,0.00,VWS V14.01,2013-08-09 04:59:00,
2013-08-09 01:04:00,71.3,71.3,30.06,WSW,245,0.0,0.0,100,0.00,,FEW010,0.00,VWS V14.01,2013-08-09 05:04:00,
2013-08-09 01:09:00,71.4,71.4,30.06,WSW,245,0.0,0.0,100,0.00,,FEW010,0.00,VWS V14.01,2013-08-09 05:09:00,
2013-08-09 01:14:00,71.4,71.4,30.06,WSW,245,0.0,0.0,100,0.00,,FEW010,0.00,VWS V14.01,2013-08-09 05:14:00,
2013-08-09 01:19:00,71.5,71.5,30.05,WSW,245,0.0,0.0,100,0.00,,FEW010,0.00,VWS V14.01,2013-08-09 05:19:00,
2013-08-09 01:24:00,71.5,71.5,30.05,WSW,245,0.0,0.0,100,0.00,,FEW010,0.00,VWS V14.01,2013-08-09 05:24:00,
2013-08-09 01:30:00,71.5,71.5,30.05,WSW,245,0.0,0.0,100,0.00,,FEW010,0.00,VWS V14.01,2013-08-09 05:30:00,
2013-08-09 01:35:00,71.6,71.6,30.04,WSW,245,0.0,0.0,100,0.00,,FEW010,0.00,VWS V14.01,2013-08-09 05:35:00,
2013-08-09 01:40:00,71.5,71.5,30.03,WSW,245,0.0,0.0,100,0.00,,FEW010,0.00,VWS V14.01,2013-08-09 05:40:00,
2013-08-09 01:45:00,71.5,71.5,30.03,WSW,245,0.0,0.0,100,0.00,,FEW010,0.00,VWS V14.01,2013-08-09 05:45:00,
2013-08-09 01:50:00,71.5,71.5,30.03,WSW,245,0.0,0.0,100,0.00,,FEW010,0.00,VWS V14.01,2013-08-09 05:50:00,
2013-08-09 01:55:00,71.6,71.6,30.04,WSW,245,0.0,0.0,100,0.00,,FEW010,0.00,VWS V14.01,2013-08-09 05:55:00,
2013-08-09 02:00:00,71.6,71.6,30.04,WSW,245,0.0,0.0,100,0.00,,FEW012,0.00,VWS V14.01,2013-08-09 06:00:00,
2013-08-09 02:05:00,71.6,71.6,30.03,WSW,245,0.0,0.0,100,0.00,,FEW012,0.00,VWS V14.01,2013-08-09 06:05:00,
2013-08-09 02:11:00,71.6,71.6,30.03,WSW,245,0.0,0.0,100,0.00,,FEW012,0.00,VWS V14.01,2013-08-09 06:11:00,
2013-08-09 02:16:00,71.7,71.7,30.04,WSW,245,0.0,0.0,100,0.00,,FEW012,0.00,VWS V14.01,2013-08-09 06:16:00,
2013-08-09 02:21:00,71.7,71.7,30.03,WSW,245,0.0,0.0,100,0.00,,FEW012,0.00,VWS V14.01,2013-08-09 06:21:00,
2013-08-09 02:26:00,71.7,71.7,30.03,WSW,245,0.0,0.0,100,0.00,,FEW012,0.00,VWS V14.01,2013-08-09 06:26:00,
2013-08-09 02:31:00,71.7,71.7,30.02,WSW,245,0.0,0.0,100,0.00,,FEW012,0.00,VWS V14.01,2013-08-09 06:31:00,
2013-08-09 02:36:00,71.7,71.7,30.02,WSW,245,0.0,0.0,100,0.00,,FEW012,0.00,VWS V14.01,2013-08-09 06:36:00,
2013-08-09 02:41:00,71.8,71.8,30.02,WNW,290,0.0,6.1,100,0.00,,FEW012,0.00,VWS V14.01,2013-08-09 06:41:00,
2013-08-09 02:46:00,71.8,71.8,30.02,WNW,290,0.0,0.0,100,0.00,,FEW012,0.00,VWS V14.01,2013-08-09 06:46:00,
2013-08-09 02:51:00,71.9,71.9,30.02,WNW,290,0.0,0.0,100,0.00,,FEW012,0.00,VWS V14.01,2013-08-09 06:51:00,
2013-08-09 02:57:00,72.0,72.0,30.02,WNW,290,0.0,0.0,100,0.00,,FEW012,0.00,VWS V14.01,2013-08-09 06:57:00,
2013-08-09 03:02:00,71.9,71.9,30.02,WNW,302,0.0,2.9,100,0.00,,BKN010,0.00,VWS V14.01,2013-08-09 07:02:00,
2013-08-09 03:07:00,72.0,72.0,30.02,WNW,302,0.0,0.0,100,0.00,,BKN010,0.00,VWS V14.01,2013-08-09 07:07:00,
2013-08-09 03:12:00,72.0,72.0,30.02,WNW,302,0.0,0.0,100,0.00,,BKN010,0.00,VWS V14.01,2013-08-09 07:12:00,
2013-08-09 03:17:00,71.9,71.9,30.01,WNW,302,0.0,0.0,100,0.00,,BKN010,0.00,VWS V14.01,2013-08-09 07:17:00,
2013-08-09 03:22:00,71.8,71.8,30.02,WNW,302,0.0,0.0,100,0.00,,BKN010,0.00,VWS V14.01,2013-08-09 07:22:00,
2013-08-09 03:27:00,72.1,72.1,30.02,WNW,302,0.0,0.0,100,0.00,,BKN010,0.00,VWS V14.01,2013-08-09 07:27:00,
2013-08-09 03:32:00,72.0,72.0,30.02,WNW,302,0.0,0.0,100,0.00,,BKN010,0.00,VWS V14.01,2013-08-09 07:32:00,
2013-08-09 03:37:00,72.1,72.1,30.02,WNW,302,0.0,0.0,100,0.00,,BKN010,0.00,VWS V14.01,2013-08-09 07:37:00,
2013-08-09 03:42:00,72.0,72.0,30.01,WNW,302,0.0,0.0,100,0.00,,BKN010,0.00,VWS V14.01,2013-08-09 07:42:00,
2013-08-09 03:48:00,71.9,71.9,30.01,WNW,302,0.0,0.0,100,0.00,,BKN010,0.00,VWS V14.01,2013-08-09 07:48:00,
2013-08-09 03:53:00,72.0,72.0,30.01,WNW,302,0.0,0.0,100,0.00,,BKN010,0.00,VWS V14.01,2013-08-09 07:53:00,
2013-08-09 03:58:00,72.0,72.0,30.01,WNW,302,0.0,0.0,100,0.00,,BKN010,0.00,VWS V14.01,2013-08-09 07:58:00,
2013-08-09 04:03:00,71.9,71.9,30.00,WNW,302,0.0,0.0,100,0.00,,OVC012,0.00,VWS V14.01,2013-08-09 08:03:00,
2013-08-09 04:08:00,71.9,71.9,30.00,WNW,302,0.0,0.0,100,0.00,,OVC012,0.00,VWS V14.01,2013-08-09 08:08:00,
2013-08-09 04:13:00,71.9,71.9,30.01,WNW,302,0.0,0.0,100,0.00,,OVC012,0.00,VWS V14.01,2013-08-09 08:13:00,
2013-08-09 04:18:00,72.0,72.0,30.01,WNW,302,0.0,0.0,100,0.00,,OVC012,0.00,VWS V14.01,2013-08-09 08:18:00,
2013-08-09 04:23:00,71.9,71.9,30.01,WNW,302,0.0,0.0,100,0.00,,OVC012,0.00,VWS V14.01,2013-08-09 08:23:00,
2013-08-09 04:29:00,72.1,72.1,30.00,WNW,302,0.0,0.0,100,0.00,,OVC012,0.00,VWS V14.01,2013-08-09 08:29:00,
2013-08-09 04:34:00,72.0,72.0,30.00,WNW,302,0.0,0.0,100,0.00,,OVC012,0.00,VWS V14.01,2013-08-09 08:34:00,
2013-08-09 04:39:00,72.1,72.1,30.01,WNW,302,0.0,0.0,100,0.01,,OVC012,0.01,VWS V14.01,2013-08-09 08:39:00,
2013-08-09 04:44:00,72.1,72.1,30.01,WNW,302,0.0,0.0,100,0.01,,OVC012,0.01,VWS V14.01,2013-08-09 08:44:00,
2013-08-09 04:49:00,72.0,72.0,30.00,WNW,302,0.0,0.0,100,0.01,,OVC012,0.01,VWS V14.01,2013-08-09 08:49:00,
2013-08-09 04:54:00,71.9,71.9,30.00,WNW,302,0.0,0.0,100,0.01,,OVC012,0.01,VWS V14.01,2013-08-09 08:54:00,
2013-08-09 04:59:00,72.2,72.2,30.00,WNW,302,0.0,0.0,100,0.02,,OVC012,0.02,VWS V14.01,2013-08-09 08:59:00,
2013-08-09 05:04:00,72.2,72.2,30.01,WNW,302,0.0,0.0,100,0.03,,-RA,0.03,VWS V14.01,2013-08-09 09:04:00,
2013-08-09 05:09:00,72.2,72.2,30.00,WNW,302,0.0,0.0,100,0.03,,-RA,0.03,VWS V14.01,2013-08-09 09:09:00,
2013-08-09 05:14:00,72.3,72.3,30.00,WNW,302,0.0,0.0,100,0.04,,-RA,0.04,VWS V14.01,2013-08-09 09:14:00,
2013-08-09 05:20:00,72.2,72.2,30.00,WNW,302,0.0,0.0,100,0.05,,-RA,0.05,VWS V14.01,2013-08-09 09:20:00,
2013-08-09 05:25:00,72.4,72.4,30.01,WNW,302,0.0,0.0,100,0.07,,-RA,0.07,VWS V14.01,2013-08-09 09:25:00,
2013-08-09 05:30:00,72.4,72.4,30.01,WNW,302,0.0,0.0,100,0.08,,-RA,0.08,VWS V14.01,2013-08-09 09:30:00,
2013-08-09 05:35:00,72.3,72.3,30.00,WNW,302,0.0,0.0,100,0.09,,-RA,0.09,VWS V14.01,2013-08-09 09:35:00,
2013-08-09 05:40:00,72.3,72.3,29.99,WNW,302,0.0,0.0,100,0.10,,-RA,0.10,VWS V14.01,2013-08-09 09:40:00,
2013-08-09 05:45:00,72.5,72.5,30.00,WNW,302,0.0,0.0,100,0.10,,-RA,0.11,VWS V14.01,2013-08-09 09:45:00,
2013-08-09 05:50:00,72.5,72.5,30.00,WNW,302,0.0,0.0,100,0.11,,-RA,0.12,VWS V14.01,2013-08-09 09:50:00,
2013-08-09 05:55:00,72.6,72.6,29.99,WNW,302,0.0,3.2,100,0.12,,-RA,0.13,VWS V14.01,2013-08-09 09:55:00,
2013-08-09 06:01:00,72.5,72.5,30.00,WNW,302,0.0,3.2,100,0.13,,RA,0.14,VWS V14.01,2013-08-09 10:01:00,
2013-08-09 06:06:00,72.6,72.6,29.99,WNW,302,0.0,0.0,100,0.13,,RA,0.15,VWS V14.01,2013-08-09 10:06:00,
2013-08-09 06:11:00,72.6,72.6,29.99,WNW,302,0.0,0.0,100,0.14,,RA,0.16,VWS V14.01,2013-08-09 10:11:00,
2013-08-09 06:16:00,72.7,72.7,30.00,WNW,302,0.0,0.0,100,0.12,,RA,0.16,VWS V14.01,2013-08-09 10:16:00,
2013-08-09 06:21:00,72.7,72.7,30.00,WNW,302,0.0,0.0,100,0.13,,RA,0.17,VWS V14.01,2013-08-09 10:21:00,
2013-08-09 06:26:00,72.7,72.7,29.98,WNW,302,0.0,0.0,100,0.12,,RA,0.18,VWS V14.01,2013-08-09 10:26:00,
2013-08-09 06:31:00,72.8,72.8,29.98,WNW,302,0.0,0.0,100,0.12,,RA,0.18,VWS V14.01,2013-08-09 10:31:00,
2013-08-09 06:36:00,72.9,72.9,29.99,WNW,302,0.0,0.0,100,0.10,,RA,0.18,VWS V14.01,2013-08-09 10:36:00,
2013-08-09 06:41:00,72.9,72.9,30.00,WNW,302,0.0,0.0,100,0.11,,RA,0.19,VWS V14.01,2013-08-09 10:41:00,
2013-08-09 06:46:00,72.9,72.9,29.99,SSW,208,0.0,5.1,100,0.10,,RA,0.20,VWS V14.01,2013-08-09 10:46:00,
2013-08-09 06:51:00,72.9,72.9,29.99,SSW,208,0.0,5.1,100,0.11,,RA,0.21,VWS V14.01,2013-08-09 10:51:00,
2013-08-09 06:57:00,72.8,72.8,29.99,SSW,208,0.0,0.0,100,0.09,,RA,0.21,VWS V14.01,2013-08-09 10:57:00,
2013-08-09 07:02:00,72.7,72.7,29.97,SSW,208,0.0,0.0,100,0.10,,RA,0.22,VWS V14.01,2013-08-09 11:02:00,
2013-08-09 07:07:00,72.8,72.8,29.97,SSW,208,0.0,0.0,100,0.09,,RA,0.23,VWS V14.01,2013-08-09 11:07:00,
2013-08-09 07:12:00,72.8,72.8,29.98,SSW,208,0.0,0.0,100,0.10,,RA,0.24,VWS V14.01,2013-08-09 11:12:00,
2013-08-09 07:17:00,72.8,72.8,29.98,SSW,208,0.0,0.0,100,0.08,,RA,0.24,VWS V14.01,2013-08-09 11:17:00,
2013-08-09 07:22:00,72.9,72.9,29.98,SSW,208,0.0,0.0,100,0.08,,RA,0.24,VWS V14.01,2013-08-09 11:22:00,
2013-08-09 07:27:00,72.7,72.7,29.97,SSW,208,0.0,0.0,100,0.08,,RA,0.25,VWS V14.01,2013-08-09 11:27:00,
2013-08-09 07:32:00,72.8,72.8,29.97,SSW,208,0.0,0.0,100,0.07,,RA,0.25,VWS V14.01,2013-08-09 11:32:00,
2013-08-09 07:37:00,72.8,72.8,29.98,SSW,208,0.0,0.0,100,0.08,,RA,0.26,VWS V14.01,2013-08-09 11:37:00,
2013-08-09 07:43:00,72.8,72.8,29.98,SSW,208,0.0,0.0,100,0.07,,RA,0.26,VWS V14.01,2013-08-09 11:43:00,
2013-08-09 07:48:00,72.8,72.8,29.97,SSW,208,0.0,0.0,100,0.08,,RA,0.27,VWS V14.01,2013-08-09 11:48:00,
2013-08-09 07:53:00,72.8,72.8,29.97,SSW,208,0.0,0.0,100,0.07,,RA,0.28,VWS V14.01,2013-08-09 11:53:00,
2013-08-09 07:58:00,72.8,72.8,29.98,SSW,208,0.0,0.0,100,0.08,,RA,0.29,VWS V14.01,2013-08-09 11:58:00,
2013-08-09 08:03:00,72.9,72.9,29.98,SSW,208,0.0,0.0,100,0.07,,RA,0.29,VWS V14.01,2013-08-09 12:03:00,
2013-08-09 08:08:00,72.9,72.9,29.97,SSW,208,0.0,0.0,100,0.08,,RA,0.30,VWS V14.01,2013-08-09 12:08:00,
2013-08-09 08:13:00,72.9,72.9,29.96,SSW,208,0.0,0.0,100,0.07,,RA,0.31,VWS V14.01,2013-08-09 12:13:00,
2013-08-09 08:18:00,72.9,72.9,29.96,SSW,208,0.0,0.0,100,0.08,,RA,0.32,VWS V14.01,2013-08-09 12:18:00,
2013-08-09 08:23:00,73.0,73.0,29.96,SSW,208,0.0,0.0,100,0.08,,RA,0.32,VWS V14.01,2013-08-09 12:23:00,
2013-08-09 08:29:00,73.0,73.0,29.96,SSW,208,0.0,0.0,100,0.08,,RA,0.32,VWS V14.01,2013-08-09 12:29:00,
2013-08-09 08:34:00,73.1,73.1,29.95,SSW,208,0.0,0.0,100,0.07,,RA,0.32,VWS V14.01,2013-08-09 12:34:00,
2013-08-09 08:39:00,73.0,73.0,29.95,SSW,208,0.0,0.0,100,0.07,,RA,0.32,VWS V14.01,2013-08-09 12:39:00,
2013-08-09 08:44:00,73.0,73.0,29.95,SSW,208,0.0,0.0,100,0.06,,RA,0.32,VWS V14.01,2013-08-09 12:44:00,
2013-08-09 08:49:00,73.1,73.1,29.95,SSW,208,0.0,0.0,100,0.06,,RA,0.32,VWS V14.01,2013-08-09 12:49:00,
2013-08-09 08:54:00,73.1,73.1,29.95,SSW,208,0.0,0.0,100,0.05,,RA,0.32,VWS V14.01,2013-08-09 12:54:00,
2013-08-09 08:59:00,73.0,73.0,29.93,SSW,208,0.0,0.0,100,0.05,,RA,0.32,VWS V14.01,2013-08-09 12:59:00,
2013-08-09 09:04:00,73.1,73.1,29.93,SSW,208,0.0,0.0,100,0.03,,RA,0.32,VWS V14.01,2013-08-09 13:04:00,
2013-08-09 09:09:00,73.2,73.2,29.93,SSW,208,0.0,0.0,100,0.03,,RA,0.32,VWS V14.01,2013-08-09 13:09:00,
2013-08-09 09:14:00,73.1,73.1,29.93,SSW,208,0.0,0.0,100,0.01,,RA,0.32,VWS V14.01,2013-08-09 13:14:00,
2013-08-09 09:19:00,73.2,73.2,29.93,SSW,208,0.0,0.0,100,0.01,,RA,0.32,VWS V14.01,2013-08-09 13:19:00,
2013-08-09 09:25:00,73.2,73.2,29.92,SSW,208,0.0,0.0,100,0.00,,RA,0.32,VWS V14.01,2013-08-09 13:25:00,
2013-08-09 09:30:00,73.3,73.3,29.92,WSW,255,0.0,5.8,100,0.00,,RA,0.32,VWS V14.01,2013-08-09 13:30:00,
2013-08-09 09:35:00,73.3,73.3,29.93,WSW,255,0.0,0.0,100,0.00,,RA,0.32,VWS V14.01,2013-08-09 13:35:00,
2013-08-09 09:40:00,73.2,73.2,29.92,WSW,255,0.0,0.0,100,0.00,,RA,0.32,VWS V14.01,2013-08-09 13:40:00,
2013-08-09 09:45:00,73.2,73.2,29.92,WSW,255,0.0,0.0,100,0.00,,RA,0.32,VWS V14.01,2013-08-09 13:45:00,
2013-08-09 09:50:00,73.4,73.4,29.92,WSW,255,0.0,1.9,100,0.01,,RA,0.33,VWS V14.01,2013-08-09 13:50:00,
2013-08-09 09:55:00,73.3,73.3,29.91,WSW,255,0.0,0.0,100,0.01,,RA,0.33,VWS V14.01,2013-08-09 13:55:00,
2013-08-09 10:00:00,73.3,73.3,29.91,WSW,255,0.0,0.0,100,0.01,,-RA,0.33,VWS V14.01,2013-08-09 14:00:00,
2013-08-09 10:06:00,73.4,73.4,29.91,WSW,255,0.0,0.0,100,0.01,,-RA,0.33,VWS V14.01,2013-08-09 14:06:00,
2013-08-09 10:11:00,73.5,73.5,29.92,WSW,255,0.0,0.0,100,0.02,,-RA,0.34,VWS V14.01,2013-08-09 14:11:00,
2013-08-09 10:16:00,73.5,73.5,29.91,WSW,255,0.0,0.0,100,0.02,,-RA,0.34,VWS V14.01,2013-08-09 14:16:00,
2013-08-09 10:21:00,73.4,73.4,29.90,WSW,255,0.0,0.0,100,0.02,,-RA,0.34,VWS V14.01,2013-08-09 14:21:00,
2013-08-09 10:26:00,73.5,73.5,29.90,WSW,255,0.0,0.0,100,0.02,,-RA,0.34,VWS V14.01,2013-08-09 14:26:00,
2013-08-09 10:31:00,73.5,73.5,29.91,WSW,255,0.0,0.0,100,0.02,,-RA,0.34,VWS V14.01,2013-08-09 14:31:00,
2013-08-09 10:36:00,73.6,73.6,29.91,WSW,255,0.0,0.0,100,0.02,,-RA,0.34,VWS V14.01,2013-08-09 14:36:00,
2013-08-09 10:41:00,73.6,73.6,29.90,WSW,255,0.0,3.2,100,0.02,,-RA,0.34,VWS V14.01,2013-08-09 14:41:00,
2013-08-09 10:46:00,73.7,73.7,29.91,WSW,255,0.0,3.5,100,0.02,,-RA,0.34,VWS V14.01,2013-08-09 14:46:00,
2013-08-09 10:51:00,73.7,73.7,29.90,WSW,255,0.0,3.5,100,0.03,,-RA,0.35,VWS V14.01,2013-08-09 14:51:00,
2013-08-09 10:57:00,73.8,73.8,29.91,WSW,255,0.0,0.0,100,0.02,,-RA,0.35,VWS V14.01,2013-08-09 14:57:00,
2013-08-09 11:02:00,73.8,73.8,29.90,WSW,255,0.0,0.0,100,0.02,,-RA,0.35,VWS V14.01,2013-08-09 15:02:00,
2013-08-09 11:07:00,73.8,73.8,29.89,WSW,255,0.0,0.0,100,0.02,,-RA,0.35,VWS V14.01,2013-08-09 15:07:00,
2013-08-09 11:12:00,73.7,73.7,29.89,WSW,255,0.0,0.0,100,0.02,,-RA,0.35,VWS V14.01,2013-08-09 15:12:00,
2013-08-09 11:17:00,73.8,73.8,29.89,WSW,255,0.0,0.0,100,0.01,,-RA,0.35,VWS V14.01,2013-08-09 15:17:00,
2013-08-09 11:22:00,73.8,73.8,29.89,WSW,255,0.0,0.0,100,0.01,,-RA,0.35,VWS V14.01,2013-08-09 15:22:00,
2013-08-09 11:27:00,73.9,73.9,29.89,WSW,255,0.0,0.0,100,0.01,,-RA,0.35,VWS V14.01,2013-08-09 15:27:00,
2013-08-09 11:32:00,74.0,74.0,29.88,WSW,255,0.0,0.0,100,0.01,,-RA,0.35,VWS V14.01,2013-08-09 15:32:00,
2013-08-09 11:37:00,73.8,73.8,29.88,WSW,255,0.0,0.0,100,0.01,,-RA,0.35,VWS V14.01,2013-08-09 15:37:00,
2013-08-09 11:42:00,73.9,73.9,29.88,WSW,255,0.0,0.0,100,0.02,,-RA,0.36,VWS V14.01,2013-08-09 15:42:00,
2013-08-09 11:47:00,74.0,74.0,29.88,WSW,250,0.0,5.7,100,0.02,,-RA,0.36,VWS V14.01,2013-08-09 15:47:00,
2013-08-09 11:52:00,74.0,74.0,29.88,WSW,250,0.0,0.0,100,0.01,,-RA,0.36,VWS V14.01,2013-08-09 15:52:00,
2013-08-09 11:58:00,74.1,74.1,29.88,WSW,250,0.0,0.0,100,0.01,,-RA,0.36,VWS V14.01,2013-08-09 15:58:00,
2013-08-09 12:03:00,74.1,74.1,29.88,WSW,250,0.0,0.0,100,0.01,,-RA,0.36,VWS V14.01,2013-08-09 16:03:00,
2013-08-09 12:08:00,74.1,74.1,29.86,WSW,250,0.0,0.0,100,0.01,,-RA,0.36,VWS V14.01,2013-08-09 16:08:00,
2013-08-09 12:13:00,74.0,74.0,29.86,WSW,250,0.0,0.0,100,0.01,,-RA,0.36,VWS V14.01,2013-08-09 16:13:00,
2013-08-09 12:18:00,74.0,74.0,29.86,WSW,250,0.0,0.0,100,0.01,,-RA,0.36,VWS V14.01,2013-08-09 16:18:00,
2013-08-09 12:23:00,74.0,74.0,29.86,WSW,250,0.0,0.0,100,0.01,,-RA,0.36,VWS V14.01,2013-08-09 16:23:00,
2013-08-09 12:24:00,74.1,74.1,29.86,WSW,250,0.0,0.0,100,0.01,,-RA,0.36,VWS V14.01,2013-08-09 16:24:00,
2013-08-09 12:29:00,74.1,74.1,29.85,WSW,250,0.0,0.0,100,0.01,,-RA,0.36,VWS V14.01,2013-08-09 16:29:00,
2013-08-09 12:34:00,74.2,74.2,29.85,WSW,250,0.0,2.6,100,0.01,,-RA,0.36,VWS V14.01,2013-08-09 16:34:00,
2013-08-09 12:39:00,74.2,74.2,29.85,WSW,250,0.0,0.0,100,0.01,,-RA,0.36,VWS V14.01,2013-08-09 16:39:00,
2013-08-09 12:44:00,74.3,74.3,29.85,WSW,250,0.0,0.0,100,0.00,,-RA,0.36,VWS V14.01,2013-08-09 16:44:00,
2013-08-09 12:49:00,74.4,74.4,29.85,WSW,250,0.0,0.0,100,0.00,,-RA,0.36,VWS V14.01,2013-08-09 16:49:00,
2013-08-09 12:54:00,74.6,74.6,29.85,WSW,250,0.0,0.0,100,0.00,,-RA,0.36,VWS V14.01,2013-08-09 16:54:00,
2013-08-09 13:00:00,74.8,74.8,29.85,WSW,250,0.0,0.0,100,0.00,,-RA,0.36,VWS V14.01,2013-08-09 17:00:00,
2013-08-09 13:05:00,74.7,74.7,29.84,WSW,250,0.0,0.0,100,0.00,,-RA,0.36,VWS V14.01,2013-08-09 17:05:00,
2013-08-09 13:10:00,74.9,74.9,29.84,WSW,250,0.0,0.0,100,0.00,,-RA,0.36,VWS V14.01,2013-08-09 17:10:00,
2013-08-09 13:15:00,75.0,75.0,29.84,WSW,250,0.0,0.0,100,0.00,,-RA,0.36,VWS V14.01,2013-08-09 17:15:00,
2013-08-09 13:20:00,75.3,75.3,29.85,WSW,250,0.0,0.0,100,0.00,,-RA,0.36,VWS V14.01,2013-08-09 17:20:00,
2013-08-09 13:25:00,75.4,75.4,29.84,WSW,250,0.0,0.0,100,0.00,,-RA,0.36,VWS V14.01,2013-08-09 17:25:00,
2013-08-09 13:30:00,75.4,75.4,29.84,WSW,250,0.0,0.0,100,0.00,,-RA,0.36,VWS V14.01,2013-08-09 17:30:00,
2013-08-09 13:36:00,75.3,75.3,29.84,WSW,250,0.0,0.0,100,0.00,,-RA,0.36,VWS V14.01,2013-08-09 17:36:00,
2013-08-09 13:41:00,75.2,75.2,29.84,WNW,284,0.0,7.6,100,0.02,,-RA,0.38,VWS V14.01,2013-08-09 17:41:00,
2013-08-09 13:46:00,75.3,75.3,29.84,WNW,284,0.0,0.0,100,0.02,,-RA,0.38,VWS V14.01,2013-08-09 17:46:00,
2013-08-09 13:51:00,75.4,75.4,29.85,WNW,284,0.0,0.0,100,0.04,,-RA,0.40,VWS V14.01,2013-08-09 17:51:00,
2013-08-09 13:56:00,75.7,75.7,29.84,WNW,284,0.0,0.0,100,0.05,,-RA,0.41,VWS V14.01,2013-08-09 17:56:00,
2013-08-09 14:21:00,76.3,76.3,29.83,WSW,253,0.0,0.0,100,0.00,,-RA,0.41,VWS V14.01,2013-08-09 18:21:00,
2013-08-09 14:26:00,76.5,76.5,29.84,WSW,253,0.0,0.0,100,0.05,,-RA,0.41,VWS V14.01,2013-08-09 18:26:00,
2013-08-09 14:31:00,76.6,76.6,29.84,WSW,253,0.0,0.0,100,0.05,,-RA,0.41,VWS V14.01,2013-08-09 18:31:00,
2013-08-09 14:36:00,76.7,76.7,29.84,West,271,0.0,3.3,100,0.05,,-RA,0.41,VWS V14.01,2013-08-09 18:36:00,
2013-08-09 14:42:00,76.9,76.9,29.84,West,271,0.0,3.3,100,0.05,,-RA,0.41,VWS V14.01,2013-08-09 18:42:00,
2013-08-09 14:47:00,77.0,77.0,29.84,WSW,243,0.0,10.8,100,0.03,,-RA,0.41,VWS V14.01,2013-08-09 18:47:00,
2013-08-09 14:52:00,77.2,77.2,29.85,ESE,115,0.0,0.0,100,0.03,,-RA,0.41,VWS V14.01,2013-08-09 18:52:00,
2013-08-09 14:57:00,77.4,77.4,29.85,ESE,115,0.0,0.0,100,0.01,,-RA,0.41,VWS V14.01,2013-08-09 18:57:00,
2013-08-09 15:02:00,77.7,77.7,29.84,SW,225,0.0,6.3,100,0.01,,BKN023,0.41,VWS V14.01,2013-08-09 19:02:00,
2013-08-09 15:07:00,77.7,77.7,29.85,SW,225,0.0,0.0,100,0.00,,BKN023,0.41,VWS V14.01,2013-08-09 19:07:00,
2013-08-09 15:12:00,77.5,77.5,29.84,WSW,238,0.0,7.4,100,0.00,,BKN023,0.41,VWS V14.01,2013-08-09 19:12:00,
2013-08-09 15:17:00,78.0,78.0,29.84,West,266,0.0,7.9,100,0.00,,BKN023,0.41,VWS V14.01,2013-08-09 19:17:00,
2013-08-09 15:22:00,78.7,78.7,29.84,West,266,0.0,0.0,100,0.00,,BKN023,0.41,VWS V14.01,2013-08-09 19:22:00,
2013-08-09 15:27:00,78.1,78.1,29.83,NE,37,0.0,8.3,100,0.00,,BKN023,0.41,VWS V14.01,2013-08-09 19:27:00,
2013-08-09 15:32:00,78.7,78.7,29.84,SSW,204,0.0,0.0,100,0.00,,BKN023,0.41,VWS V14.01,2013-08-09 19:32:00,
2013-08-09 15:38:00,79.0,79.0,29.84,SSW,204,0.0,0.0,100,0.00,,BKN023,0.41,VWS V14.01,2013-08-09 19:38:00,
2013-08-09 15:43:00,79.2,79.1,29.83,SSW,204,0.0,0.0,100,0.00,,BKN023,0.41,VWS V14.01,2013-08-09 19:43:00,
2013-08-09 15:48:00,79.5,78.9,29.83,East,98,0.0,5.4,98,0.00,,BKN023,0.41,VWS V14.01,2013-08-09 19:48:00,
2013-08-09 15:53:00,79.9,78.8,29.83,WSW,246,0.0,0.0,96,0.00,,BKN023,0.41,VWS V14.01,2013-08-09 19:53:00,
2013-08-09 15:58:00,80.4,79.1,29.83,SE,124,0.0,6.0,96,0.00,,BKN023,0.41,VWS V14.01,2013-08-09 19:58:00,
2013-08-09 16:03:00,80.5,78.4,29.83,SW,228,0.0,0.0,93,0.00,,CLR,0.41,VWS V14.01,2013-08-09 20:03:00,
2013-08-09 16:08:00,80.8,78.7,29.83,SSW,194,0.0,0.0,93,0.00,,CLR,0.41,VWS V14.01,2013-08-09 20:08:00,
2013-08-09 16:13:00,80.4,78.2,29.83,SSW,212,0.0,0.0,93,0.00,,CLR,0.41,VWS V14.01,2013-08-09 20:13:00,
2013-08-09 16:18:00,80.6,78.6,29.83,SSW,212,0.0,0.0,94,0.00,,CLR,0.41,VWS V14.01,2013-08-09 20:18:00,
2013-08-09 16:23:00,80.5,78.3,29.83,SSW,212,0.0,0.0,93,0.00,,CLR,0.41,VWS V14.01,2013-08-09 20:23:00,
2013-08-09 16:28:00,80.3,78.1,29.84,SSW,212,0.0,0.0,93,0.00,,CLR,0.41,VWS V14.01,2013-08-09 20:28:00,
2013-08-09 16:33:00,80.4,78.4,29.83,SSW,212,0.0,0.0,94,0.00,,CLR,0.41,VWS V14.01,2013-08-09 20:33:00,
2013-08-09 16:38:00,80.1,78.2,29.83,SSW,212,0.0,0.0,94,0.00,,CLR,0.41,VWS V14.01,2013-08-09 20:38:00,
2013-08-09 16:44:00,79.9,78.2,29.83,SSW,212,0.0,0.0,94,0.00,,CLR,0.41,VWS V14.01,2013-08-09 20:44:00,
2013-08-09 16:49:00,79.7,78.1,29.83,SSW,212,0.0,0.0,95,0.00,,CLR,0.41,VWS V14.01,2013-08-09 20:49:00,
2013-08-09 16:54:00,79.4,77.8,29.83,SSW,212,0.0,0.0,95,0.00,,CLR,0.41,VWS V14.01,2013-08-09 20:54:00,
2013-08-09 16:59:00,79.7,78.2,29.83,SSW,212,0.0,0.0,95,0.00,,CLR,0.41,VWS V14.01,2013-08-09 20:59:00,
2013-08-09 17:04:00,79.4,78.0,29.82,SSW,212,0.0,0.0,95,0.00,,CLR,0.41,VWS V14.01,2013-08-09 21:04:00,
2013-08-09 17:09:00,79.7,78.4,29.82,SSW,212,0.0,0.0,96,0.00,,CLR,0.41,VWS V14.01,2013-08-09 21:09:00,
2013-08-09 17:14:00,79.4,78.2,29.82,SSW,212,0.0,0.0,96,0.00,,CLR,0.41,VWS V14.01,2013-08-09 21:14:00,
2013-08-09 17:19:00,79.4,78.3,29.83,SSW,212,0.0,0.0,96,0.00,,CLR,0.41,VWS V14.01,2013-08-09 21:19:00,
2013-08-09 17:24:00,79.3,78.2,29.83,SSW,212,0.0,0.0,96,0.00,,CLR,0.41,VWS V14.01,2013-08-09 21:24:00,
2013-08-09 17:29:00,79.2,78.2,29.83,SSW,212,0.0,0.0,97,0.00,,CLR,0.41,VWS V14.01,2013-08-09 21:29:00,
2013-08-09 17:34:00,79.2,78.2,29.83,SSW,212,0.0,0.0,97,0.00,,CLR,0.41,VWS V14.01,2013-08-09 21:34:00,
2013-08-09 17:40:00,79.0,78.1,29.83,SSW,212,0.0,0.0,97,0.00,,CLR,0.41,VWS V14.01,2013-08-09 21:40:00,
2013-08-09 17:45:00,78.9,78.1,29.83,SSW,212,0.0,0.0,97,0.00,,CLR,0.41,VWS V14.01,2013-08-09 21:45:00,
2013-08-09 17:50:00,78.8,78.0,29.83,SSW,212,0.0,0.0,98,0.00,,CLR,0.41,VWS V14.01,2013-08-09 21:50:00,
2013-08-09 17:55:00,78.7,78.0,29.82,SSW,212,0.0,0.0,98,0.00,,CLR,0.41,VWS V14.01,2013-08-09 21:55:00,
2013-08-09 18:00:00,78.4,77.7,29.83,SSW,212,0.0,0.0,98,0.00,,OVC100,0.41,VWS V14.01,2013-08-09 22:00:00,
2013-08-09 18:06:00,78.0,77.3,29.82,SSW,212,0.0,0.0,98,0.00,,OVC100,0.41,VWS V14.01,2013-08-09 22:06:00,
2013-08-09 18:11:00,77.9,77.3,29.83,SSW,212,0.0,0.0,98,0.00,,OVC100,0.41,VWS V14.01,2013-08-09 22:11:00,
2013-08-09 18:16:00,77.9,77.3,29.82,SSW,212,0.0,0.0,98,0.00,,OVC100,0.41,VWS V14.01,2013-08-09 22:16:00,
2013-08-09 18:21:00,77.7,77.2,29.84,SSW,212,0.0,0.0,98,0.00,,OVC100,0.41,VWS V14.01,2013-08-09 22:21:00,
2013-08-09 18:26:00,77.2,76.4,29.85,NW,316,0.0,8.1,98,0.00,,OVC100,0.41,VWS V14.01,2013-08-09 22:26:00,
2013-08-09 18:31:00,76.9,76.0,29.84,SSW,198,0.0,8.1,97,0.00,,OVC100,0.41,VWS V14.01,2013-08-09 22:31:00,
2013-08-09 18:36:00,77.0,76.2,29.84,SSW,198,0.0,0.0,97,0.00,,OVC100,0.41,VWS V14.01,2013-08-09 22:36:00,
2013-08-09 18:41:00,76.8,75.9,29.84,WNW,285,0.0,3.4,97,0.00,,OVC100,0.41,VWS V14.01,2013-08-09 22:41:00,
2013-08-09 18:46:00,76.5,75.6,29.84,WNW,285,0.0,0.0,97,0.00,,OVC100,0.41,VWS V14.01,2013-08-09 22:46:00,
2013-08-09 18:51:00,76.3,75.4,29.84,WNW,285,0.0,0.0,97,0.01,,OVC100,0.42,VWS V14.01,2013-08-09 22:51:00,
2013-08-09 18:57:00,76.2,75.4,29.84,WNW,285,0.0,0.0,97,0.01,,OVC100,0.42,VWS V14.01,2013-08-09 22:57:00,
2013-08-09 19:02:00,76.0,75.2,29.84,WNW,285,0.0,0.0,98,0.01,,-RA,0.42,VWS V14.01,2013-08-09 23:02:00,
2013-08-09 19:07:00,75.9,75.2,29.84,WNW,285,0.0,0.0,98,0.01,,-RA,0.42,VWS V14.01,2013-08-09 23:07:00,
2013-08-09 19:12:00,75.7,75.2,29.84,WNW,285,0.0,0.0,98,0.02,,-RA,0.43,VWS V14.01,2013-08-09 23:12:00,
2013-08-09 19:17:00,75.7,75.3,29.84,WNW,285,0.0,0.0,99,0.03,,-RA,0.44,VWS V14.01,2013-08-09 23:17:00,
2013-08-09 19:22:00,75.6,75.3,29.84,WNW,285,0.0,0.0,99,0.03,,-RA,0.44,VWS V14.01,2013-08-09 23:22:00,
2013-08-09 19:27:00,75.4,75.2,29.84,WNW,285,0.0,0.0,99,0.03,,-RA,0.44,VWS V14.01,2013-08-09 23:27:00,
2013-08-09 19:32:00,75.4,75.3,29.84,WNW,285,0.0,0.0,100,0.03,,-RA,0.44,VWS V14.01,2013-08-09 23:32:00,
2013-08-09 19:37:00,75.3,75.2,29.84,WNW,285,0.0,0.0,100,0.03,,-RA,0.44,VWS V14.01,2013-08-09 23:37:00,
2013-08-09 19:42:00,75.4,75.4,29.85,WNW,285,0.0,0.0,100,0.03,,-RA,0.44,VWS V14.01,2013-08-09 23:42:00,
2013-08-09 19:47:00,75.3,75.3,29.85,WNW,285,0.0,0.0,100,0.03,,-RA,0.44,VWS V14.01,2013-08-09 23:47:00,
2013-08-09 19:52:00,75.3,75.3,29.84,WNW,285,0.0,0.0,100,0.02,,-RA,0.44,VWS V14.01,2013-08-09 23:52:00,
2013-08-09 19:58:00,75.1,75.1,29.85,WNW,285,0.0,0.0,100,0.02,,-RA,0.44,VWS V14.01,2013-08-09 23:58:00,
2013-08-09 20:03:00,75.1,75.1,29.86,WNW,285,0.0,0.0,100,0.02,,,0.44,VWS V14.01,2013-08-10 00:03:00,
2013-08-09 20:08:00,75.0,75.0,29.85,WNW,285,0.0,0.0,100,0.02,,,0.44,VWS V14.01,2013-08-10 00:08:00,
2013-08-09 20:13:00,74.3,74.3,29.85,WSW,243,0.0,7.0,100,0.01,,,0.44,VWS V14.01,2013-08-10 00:13:00,
2013-08-09 20:18:00,74.1,74.1,29.85,WSW,243,0.0,7.0,100,0.01,,,0.44,VWS V14.01,2013-08-10 00:18:00,
2013-08-09 20:23:00,73.9,73.9,29.86,WSW,243,0.0,0.0,100,0.00,,,0.44,VWS V14.01,2013-08-10 00:23:00,
2013-08-09 20:28:00,73.7,73.7,29.85,WSW,243,0.0,0.0,100,0.00,,,0.44,VWS V14.01,2013-08-10 00:28:00,
2013-08-09 20:33:00,73.6,73.6,29.85,WSW,243,0.0,0.0,100,0.00,,,0.44,VWS V14.01,2013-08-10 00:33:00,
2013-08-09 20:38:00,73.5,73.5,29.85,WSW,243,0.0,0.0,100,0.00,,,0.44,VWS V14.01,2013-08-10 00:38:00,
2013-08-09 20:44:00,73.4,73.4,29.85,WSW,243,0.0,0.0,100,0.00,,,0.44,VWS V14.01,2013-08-10 00:44:00,
2013-08-09 20:49:00,73.4,73.4,29.85,WSW,243,0.0,0.0,100,0.00,,,0.44,VWS V14.01,2013-08-10 00:49:00,
2013-08-09 20:54:00,73.2,73.2,29.85,WSW,243,0.0,0.0,100,0.00,,,0.44,VWS V14.01,2013-08-10 00:54:00,
2013-08-09 20:59:00,73.1,73.1,29.85,WSW,243,0.0,0.0,100,0.00,,,0.44,VWS V14.01,2013-08-10 00:59:00,
2013-08-09 21:04:00,73.0,73.0,29.85,WSW,243,0.0,0.0,100,0.00,,FEW120,0.44,VWS V14.01,2013-08-10 01:04:00,
2013-08-09 21:09:00,73.0,73.0,29.86,WSW,243,0.0,0.0,100,0.00,,FEW120,0.44,VWS V14.01,2013-08-10 01:09:00,
2013-08-09 21:14:00,72.8,72.8,29.86,WSW,243,0.0,0.0,100,0.00,,FEW120,0.44,VWS V14.01,2013-08-10 01:14:00,
2013-08-09 21:19:00,72.7,72.7,29.85,WSW,243,0.0,0.0,100,0.00,,FEW120,0.44,VWS V14.01,2013-08-10 01:19:00,
2013-08-09 21:24:00,72.6,72.6,29.85,WSW,243,0.0,0.0,100,0.00,,FEW120,0.44,VWS V14.01,2013-08-10 01:24:00,
2013-08-09 21:30:00,72.4,72.4,29.86,WSW,243,0.0,0.0,100,0.00,,FEW120,0.44,VWS V14.01,2013-08-10 01:30:00,
2013-08-09 21:34:00,72.3,72.3,29.87,WSW,243,0.0,0.0,100,0.00,,FEW120,0.44,VWS V14.01,2013-08-10 01:34:00,
2013-08-09 21:39:00,72.1,72.1,29.87,WSW,243,0.0,0.0,100,0.00,,FEW120,0.44,VWS V14.01,2013-08-10 01:39:00,
2013-08-09 21:45:00,72.0,72.0,29.86,WSW,243,0.0,0.0,100,0.00,,FEW120,0.44,VWS V14.01,2013-08-10 01:45:00,
2013-08-09 21:50:00,71.8,71.8,29.87,WSW,243,0.0,0.0,100,0.00,,FEW120,0.44,VWS V14.01,2013-08-10 01:50:00,
2013-08-09 21:55:00,72.0,72.0,29.87,WSW,243,0.0,0.0,100,0.00,,FEW120,0.44,VWS V14.01,2013-08-10 01:55:00,
2013-08-09 22:00:00,71.9,71.9,29.87,WSW,243,0.0,0.0,100,0.00,,FEW120,0.44,VWS V14.01,2013-08-10 02:00:00,
2013-08-09 22:05:00,71.8,71.8,29.86,WSW,243,0.0,0.0,100,0.00,,,0.44,VWS V14.01,2013-08-10 02:05:00,
2013-08-09 22:10:00,71.6,71.6,29.86,WSW,243,0.0,0.0,100,0.00,,,0.44,VWS V14.01,2013-08-10 02:10:00,
2013-08-09 22:15:00,71.5,71.5,29.86,WSW,243,0.0,0.0,100,0.00,,,0.44,VWS V14.01,2013-08-10 02:15:00,
2013-08-09 22:21:00,71.5,71.5,29.87,WSW,243,0.0,0.0,100,0.00,,,0.44,VWS V14.01,2013-08-10 02:21:00,
2013-08-09 22:26:00,71.5,71.5,29.87,WSW,243,0.0,0.0,100,0.00,,,0.44,VWS V14.01,2013-08-10 02:26:00,
2013-08-09 22:31:00,71.3,71.3,29.87,WSW,243,0.0,0.0,100,0.00,,,0.44,VWS V14.01,2013-08-10 02:31:00,
2013-08-09 22:36:00,71.2,71.2,29.87,WSW,243,0.0,0.0,100,0.00,,,0.44,VWS V14.01,2013-08-10 02:36:00,
2013-08-09 22:41:00,71.2,71.2,29.88,WSW,243,0.0,0.0,100,0.00,,,0.44,VWS V14.01,2013-08-10 02:41:00,
2013-08-09 22:46:00,71.1,71.1,29.88,WSW,243,0.0,0.0,100,0.00,,,0.44,VWS V14.01,2013-08-10 02:46:00,
2013-08-09 22:51:00,71.1,71.1,29.88,WSW,243,0.0,0.0,100,0.00,,,0.44,VWS V14.01,2013-08-10 02:51:00,
2013-08-09 22:56:00,70.9,70.9,29.87,WSW,243,0.0,0.0,100,0.00,,,0.44,VWS V14.01,2013-08-10 02:56:00,
2013-08-09 23:02:00,70.9,70.9,29.87,WSW,243,0.0,0.0,100,0.00,,CLR,0.44,VWS V14.01,2013-08-10 03:02:00,
2013-08-09 23:07:00,70.8,70.8,29.88,WSW,243,0.0,0.0,100,0.00,,CLR,0.44,VWS V14.01,2013-08-10 03:07:00,
2013-08-09 23:12:00,70.7,70.7,29.88,WSW,243,0.0,0.0,100,0.00,,CLR,0.44,VWS V14.01,2013-08-10 03:12:00,
2013-08-09 23:17:00,70.5,70.5,29.88,WSW,243,0.0,0.0,100,0.00,,CLR,0.44,VWS V14.01,2013-08-10 03:17:00,
2013-08-09 23:22:00,70.5,70.5,29.88,WSW,243,0.0,0.0,100,0.00,,CLR,0.44,VWS V14.01,2013-08-10 03:22:00,
2013-08-09 23:27:00,70.5,70.5,29.88,WSW,243,0.0,0.0,100,0.00,,CLR,0.44,VWS V14.01,2013-08-10 03:27:00,
2013-08-09 23:32:00,70.5,70.5,29.89,WSW,243,0.0,0.0,100,0.00,,CLR,0.44,VWS V14.01,2013-08-10 03:32:00,
2013-08-09 23:37:00,70.5,70.5,29.88,WSW,243,0.0,0.0,100,0.00,,CLR,0.44,VWS V14.01,2013-08-10 03:37:00,
2013-08-09 23:42:00,70.4,70.4,29.87,WSW,243,0.0,0.0,100,0.00,,CLR,0.44,VWS V14.01,2013-08-10 03:42:00,
2013-08-09 23:47:00,70.5,70.5,29.87,WSW,243,0.0,0.0,100,0.00,,CLR,0.44,VWS V14.01,2013-08-10 03:47:00,
2013-08-09 23:52:00,70.7,70.7,29.88,WSW,243,0.0,0.0,100,0.00,,CLR,0.44,VWS V14.01,2013-08-10 03:52:00,
2013-08-09 23:58:00,70.8,70.8,29.88,WSW,243,0.0,0.0,100,0.00,,CLR,0.44,VWS V14.01,2013-08-10 03:58:00,